Rochester, NH

6:09 PM EDT on August 23, 2016 (GMT -0400)
Skyhaven

Weather History for KDAW - April, 2013

Change the Weather History Date:

Wednesday, April 3, 2013

  Actual Average (KSFM) Record (KSFM)
Temperature  
Mean Temperature 36 °F -  
Max Temperature 44 °F 46 °F 69 °F (2002)
Min Temperature 28 °F 27 °F 19 °F (2012)
Degree Days  
Heating Degree Days 29    
Moisture  
Dew Point 7 °F    
Average Humidity 33    
Maximum Humidity 47    
Minimum Humidity 17    
Precipitation  
Precipitation 0.00 in - - ()
Sea Level Pressure  
Sea Level Pressure 29.91 in    
Wind  
Wind Speed 10 mph (WNW)    
Max Wind Speed 28 mph    
Max Gust Speed 39 mph    
Visibility 10 miles    
Events      
Averages and records for this station are not official NWS values.
T = Trace of Precipitation, MM = Missing Value Source: NWS Daily Summary

Daily Weather History Graph

Daily Weather History Graph

Search for Another Location

Airport or City:

Trip Planner

Search our weather history database for the weather conditions in past years. The results will help you decide how hot, cold, wet, or windy it might be!

Date:

Astronomy

Apr. 03, 2013 Rise Set
Actual Time 6:21 AM EDT 7:12 PM EDT
Civil Twilight 5:52 AM EDT 7:41 PM EDT
Nautical Twilight 5:18 AM EDT 8:16 PM EDT
Astronomical Twilight 4:42 AM EDT 8:52 PM EDT
Moon 2:10 AM EDT (4/3) 12:11 PM EDT (4/3)
Length of Visible Light 13h 48m
Length of Day
12h 51m
Last Quarter, 45% of the Moon is Illuminated
Apr 3
Last Quarter
Apr 10
New
Apr 18
First Quarter
Apr 25
Full
May 2
Last Quarter

Hourly Weather History & Observations

Time (EDT) Temp. Windchill Dew Point Humidity Pressure Visibility Wind Dir Wind Speed Gust Speed Precip Events Conditions
12:51 AM 30.9 °F 24.3 °F 10.0 °F 42% 29.85 in 10.0 mi West 6.9 mph - N/A   Clear
1:51 AM 30.0 °F 24.1 °F 12.0 °F 47% 29.85 in 10.0 mi West 5.8 mph - N/A   Clear
2:51 AM 30.0 °F 22.4 °F 12.0 °F 47% 29.85 in 10.0 mi West 8.1 mph - N/A   Clear
3:51 AM 28.9 °F 20.4 °F 9.0 °F 43% 29.85 in 10.0 mi West 9.2 mph - N/A   Clear
4:51 AM 28.9 °F 23.9 °F 8.1 °F 41% 29.86 in 10.0 mi Variable 4.6 mph - N/A   Clear
5:51 AM 28.0 °F 20.0 °F 8.1 °F 43% 29.87 in 10.0 mi West 8.1 mph - N/A   Clear
6:51 AM 28.0 °F 20.8 °F 8.1 °F 43% 29.89 in 10.0 mi West 6.9 mph - N/A   Clear
7:51 AM 30.0 °F 21.1 °F 8.1 °F 40% 29.91 in 10.0 mi West 10.4 mph 20.7 mph N/A   Clear
8:51 AM 32.0 °F 24.2 °F 8.1 °F 37% 29.90 in 10.0 mi West 9.2 mph 25.3 mph N/A   Clear
9:51 AM 33.1 °F 23.9 °F 7.0 °F 34% 29.90 in 10.0 mi WNW 12.7 mph 21.9 mph N/A   Clear
10:51 AM 34.0 °F 26.6 °F 7.0 °F 32% 29.89 in - West 9.2 mph 26.5 mph N/A   Clear
11:51 AM 39.0 °F 31.4 °F 8.1 °F 28% 29.88 in 10.0 mi West 12.7 mph 23.0 mph N/A   Unknown
12:51 PM 39.9 °F 32.5 °F 7.0 °F 26% 29.88 in 10.0 mi West 12.7 mph 20.7 mph N/A   Clear
1:51 PM 42.1 °F 33.9 °F 5.0 °F 22% 29.88 in 10.0 mi West 17.3 mph 29.9 mph N/A   Clear
2:51 PM 43.0 °F 35.7 °F 5.0 °F 21% 29.88 in 10.0 mi West 15.0 mph 29.9 mph N/A   Clear
3:51 PM 43.0 °F 35.4 °F 3.0 °F 19% 29.88 in 10.0 mi WNW 16.1 mph 32.2 mph N/A   Clear
4:51 PM 44.1 °F 35.7 °F 1.9 °F 17% 29.89 in 10.0 mi WNW 20.7 mph 31.1 mph N/A   Clear
5:51 PM 43.0 °F 35.1 °F 3.0 °F 19% 29.90 in 10.0 mi NW 17.3 mph 28.8 mph N/A   Clear
6:51 PM 41.0 °F 34.7 °F 3.0 °F 21% 29.93 in 10.0 mi West 10.4 mph 31.1 mph N/A   Clear
7:51 PM 39.0 °F 31.4 °F 5.0 °F 24% 29.97 in 10.0 mi WNW 12.7 mph 18.4 mph N/A   Clear
8:51 PM 37.9 °F 29.6 °F 7.0 °F 28% 30.02 in 10.0 mi WNW 13.8 mph 25.3 mph N/A   Clear
9:51 PM 36.0 °F 26.7 °F 10.0 °F 34% 30.04 in 10.0 mi NW 15.0 mph 25.3 mph N/A   Clear
11:51 PM 35.1 °F 22.2 °F 14.0 °F 42% 30.07 in 10.0 mi NW 27.6 mph 39.1 mph N/A   Clear